Simultaneous Nadir Overpasses (SNOs) Predictions

Prediction of SNOs between LANDSAT-8 and NOAA-19 Satellite Orbit:

Table of predicted SNOs for the next 14.0 days since TLE Epoch: 10/16/2023
Index Date (LANDSAT-8) Time (LANDSAT-8) Lat,Lon (LANDSAT-8) SZA (LANDSAT-8 ) Date (NOAA-19) Time (NOAA-19) Lat,Lon (NOAA-19) SZA (NOAA-19 ) Distance(km) Time Diff (sec)
1 10/17/2023 18:57:42 80.92, -67.37 92.41 10/17/2023 18:56:44 80.92, -67.35 92.38 0.38 58
2 10/17/2023 19:47:09 -80.91, 100.22 87.59 10/17/2023 19:47:41 -80.92, 100.37 87.56 2.73 32
3 10/20/2023 01:20:51 80.92,-163.10 93.24 10/20/2023 01:20:03 80.92,-163.18 93.21 1.69 48
4 10/20/2023 02:10:18 -80.92, 4.51 86.75 10/20/2023 02:11:00 -80.92, 4.34 86.75 2.94 42
5 10/22/2023 07:44:00 80.91, 100.97 94.03 10/22/2023 07:43:22 80.91, 100.90 94.01 1.29 38
6 10/22/2023 08:33:27 -80.91, -91.40 85.96 10/22/2023 08:34:18 -80.92, -91.40 85.93 0.99 51
7 10/24/2023 14:07:08 80.91, 5.18 94.83 10/24/2023 14:06:40 80.91, 5.25 94.83 1.19 28
8 10/24/2023 14:56:35 -80.91, 172.82 85.16 10/24/2023 14:57:36 -80.92, 172.77 85.13 1.19 61
9 10/26/2023 20:30:15 80.92, -90.46 95.63 10/26/2023 20:29:58 80.91, -90.50 95.62 1.05 17
10 10/26/2023 21:19:42 -80.92, 77.19 84.36 10/26/2023 21:20:53 -80.92, 77.22 84.32 0.61 71



Historial Predications of SNOs between LANDSAT-8 and NOAA-19
